User: anonymous   Login
Location: Oshawa
(43.9000°N, 78.8670°W)
Time: 06:18:24
(UTC-05:00)
Language:

Envisat - Orbit

View from above orbital plane
View from above orbital plane
View from above satellite
View from above satellite

Ground track
Ground track

The orbit data is extracted from the following two-line orbital elements,

1 27386U 02009A   17058.23073198 -.00000002  00000-0  13121-4 0  9996
2 27386  98.2472 108.0146 0001196  86.6410 273.4924 14.37888995785274
Epoch (UTC): 27 February 2017 05:32:15
Eccentricity: 0.0001196
inclination: 98.2472°
perigee height: 764 km
apogee height: 766 km
right ascension of ascending node: 108.0146°
argument of perigee: 86.6410°
revolutions per day: 14.37888995
mean anomaly at epoch: 273.4924°
orbit number at epoch: 78527

The dashed part of the orbit path shows where the satellite is in the earth's shadow,  

DLR